Private Wetterstation Wechselburg
Wetterdaten: Donnerstag, 04.10.2012
Datum Zeit Temp. +2m Bodentemp. Temp.+5cm Temp. Wind Windchill X Diff Temp. Feuchte +2m Feuchte +5cm Sonnenschein Luftdruck Regen Wind Richtung Richtung Sonnenschein UV Taupunkt Windchill Windben
04.10.2012 00:00 13,9 C 19,4 C 13,6 C 14,0 C 14,0 C 0,1 C 75 % 80 % 0 % 1013,0 hPa 0,0 l/m 0,8 km/h (0 Bft) O-SO 112 0 min 0,0 UV-I 9,5 C 14,0 C 2,1 km/h (1 Bft)
04.10.2012 00:05 14,0 C 19,4 C 13,7 C 14,2 C 14,2 C 0,2 C 74 % 80 % 0 % 1013,2 hPa 0,0 l/m 0,8 km/h (0 Bft) W 270 0 min 0,0 UV-I 9,4 C 14,2 C 4,2 km/h (1 Bft)
04.10.2012 00:10 14,1 C 19,4 C 13,7 C 14,3 C 14,3 C 0,2 C 74 % 79 % 0 % 1013,2 hPa 0,0 l/m 1,0 km/h (0 Bft) S 180 0 min 0,0 UV-I 9,5 C 14,3 C 4,0 km/h (1 Bft)
04.10.2012 00:15 14,3 C 19,4 C 13,7 C 14,4 C 14,4 C 0,1 C 73 % 79 % 0 % 1013,2 hPa 0,0 l/m 0,8 km/h (0 Bft) SO 135 0 min 0,0 UV-I 9,5 C 14,4 C 0,0 km/h (0 Bft)
04.10.2012 00:20 14,2 C 19,4 C 13,7 C 14,4 C 14,4 C 0,2 C 73 % 79 % 0 % 1013,2 hPa 0,0 l/m 0,5 km/h (0 Bft) S-SO 157 0 min 0,0 UV-I 9,4 C 14,4 C 1,9 km/h (1 Bft)
04.10.2012 00:25 14,3 C 19,4 C 13,7 C 14,4 C 14,4 C 0,1 C 73 % 79 % 0 % 1013,2 hPa 0,0 l/m 0,3 km/h (0 Bft) S 180 0 min 0,0 UV-I 9,5 C 14,4 C 0,0 km/h (0 Bft)
04.10.2012 00:30 14,3 C 19,4 C 13,9 C 14,5 C 14,5 C 0,2 C 73 % 79 % 0 % 1013,2 hPa 0,0 l/m 1,1 km/h (1 Bft) O 90 0 min 0,0 UV-I 9,5 C 14,5 C 7,4 km/h (2 Bft)
04.10.2012 00:35 14,5 C 19,4 C 13,9 C 14,6 C 14,6 C 0,1 C 72 % 79 % 0 % 1013,2 hPa 0,0 l/m 1,4 km/h (1 Bft) N 360 0 min 0,0 UV-I 9,5 C 14,6 C 0,0 km/h (0 Bft)
04.10.2012 00:41 14,5 C 19,4 C 14,1 C 14,7 C 14,7 C 0,2 C 72 % 78 % 0 % 1013,1 hPa 0,0 l/m 1,0 km/h (0 Bft) N 0 0 min 0,0 UV-I 9,5 C 14,7 C 1,8 km/h (1 Bft)
04.10.2012 00:55 14,7 C 19,4 C 14,1 C 14,7 C 14,7 C 0,0 C 71 % 77 % 0 % 1013,1 hPa 0,0 l/m 0,8 km/h (0 Bft) S 180 0 min 0,0 UV-I 9,5 C 14,7 C 2,7 km/h (1 Bft)
04.10.2012 01:00 14,7 C 19,4 C 14,1 C 14,8 C 14,8 C 0,1 C 70 % 77 % 0 % 1013,1 hPa 0,0 l/m 1,4 km/h (1 Bft) S 180 0 min 0,0 UV-I 9,3 C 14,8 C 4,0 km/h (1 Bft)
04.10.2012 01:05 14,9 C 19,4 C 14,1 C 14,9 C 14,9 C 0,0 C 70 % 77 % 0 % 1013,0 hPa 0,0 l/m 1,6 km/h (1 Bft) S-SW 202 0 min 0,0 UV-I 9,5 C 14,9 C 1,6 km/h (1 Bft)
04.10.2012 01:10 14,8 C 19,4 C 14,2 C 14,9 C 14,9 C 0,1 C 69 % 77 % 0 % 1013,0 hPa 0,0 l/m 1,6 km/h (1 Bft) SO 135 0 min 0,0 UV-I 9,2 C 14,9 C 3,7 km/h (1 Bft)
04.10.2012 01:15 14,9 C 19,4 C 14,3 C 14,9 C 14,9 C 0,0 C 69 % 77 % 0 % 1013,0 hPa 0,0 l/m 1,9 km/h (1 Bft) SO 135 0 min 0,0 UV-I 9,3 C 14,9 C 6,8 km/h (2 Bft)
04.10.2012 01:20 15,1 C 19,4 C 14,3 C 15,1 C 15,0 C 0,0 C 69 % 76 % 0 % 1013,0 hPa 0,0 l/m 2,9 km/h (1 Bft) S-SW 202 0 min 0,0 UV-I 9,5 C 15,0 C 2,6 km/h (1 Bft)
04.10.2012 01:25 15,0 C 19,4 C 14,3 C 15,0 C 15,0 C 0,0 C 68 % 76 % 0 % 1012,7 hPa 0,0 l/m 2,6 km/h (1 Bft) S-SO 157 0 min 0,0 UV-I 9,1 C 15,0 C 1,6 km/h (1 Bft)
04.10.2012 01:30 15,1 C 19,4 C 14,3 C 15,1 C 15,0 C 0,0 C 68 % 76 % 0 % 1012,7 hPa 0,0 l/m 2,3 km/h (1 Bft) SW 225 0 min 0,0 UV-I 9,2 C 15,0 C 8,4 km/h (2 Bft)
04.10.2012 01:35 15,1 C 19,4 C 14,3 C 15,1 C 15,0 C 0,0 C 68 % 75 % 0 % 1012,7 hPa 0,0 l/m 2,7 km/h (1 Bft) W-SW 247 0 min 0,0 UV-I 9,2 C 15,0 C 1,9 km/h (1 Bft)
04.10.2012 01:40 15,1 C 19,4 C 14,3 C 15,1 C 15,0 C 0,0 C 68 % 75 % 0 % 1012,7 hPa 0,0 l/m 2,4 km/h (1 Bft) SW 225 0 min 0,0 UV-I 9,2 C 15,0 C 2,9 km/h (1 Bft)
04.10.2012 01:45 15,1 C 19,4 C 14,3 C 15,1 C 15,0 C 0,0 C 68 % 75 % 0 % 1012,9 hPa 0,0 l/m 1,9 km/h (1 Bft) SW 225 0 min 0,0 UV-I 9,2 C 15,0 C 1,9 km/h (1 Bft)
04.10.2012 01:50 15,1 C 19,4 C 14,3 C 15,1 C 15,0 C 0,0 C 68 % 75 % 0 % 1012,9 hPa 0,0 l/m 1,6 km/h (1 Bft) SW 225 0 min 0,0 UV-I 9,2 C 15,0 C 0,0 km/h (0 Bft)
04.10.2012 01:55 15,1 C 19,4 C 14,3 C 15,1 C 15,0 C 0,0 C 68 % 75 % 0 % 1012,9 hPa 0,0 l/m 1,4 km/h (1 Bft) W-SW 247 0 min 0,0 UV-I 9,2 C 15,0 C 3,5 km/h (1 Bft)
04.10.2012 02:00 15,0 C 19,4 C 14,3 C 15,0 C 15,0 C 0,0 C 68 % 75 % 0 % 1012,9 hPa 0,0 l/m 1,4 km/h (1 Bft) S-SW 202 0 min 0,0 UV-I 9,1 C 15,0 C 4,5 km/h (1 Bft)
04.10.2012 02:05 15,1 C 19,4 C 14,3 C 15,0 C 14,9 C 0,0 C 68 % 75 % 0 % 1012,4 hPa 0,0 l/m 1,6 km/h (1 Bft) S 180 0 min 0,0 UV-I 9,2 C 14,9 C 0,0 km/h (0 Bft)
04.10.2012 02:10 15,0 C 19,4 C 14,2 C 14,9 C 14,8 C 0,0 C 68 % 76 % 0 % 1012,4 hPa 0,0 l/m 1,3 km/h (1 Bft) S 180 0 min 0,0 UV-I 9,1 C 14,8 C 1,6 km/h (1 Bft)
04.10.2012 02:15 15,1 C 19,4 C 14,3 C 15,0 C 14,7 C 0,0 C 68 % 76 % 0 % 1012,4 hPa 0,0 l/m 0,8 km/h (0 Bft) N-NO 22 0 min 0,0 UV-I 9,2 C 14,7 C 0,0 km/h (0 Bft)
04.10.2012 02:20 14,9 C 19,4 C 14,3 C 14,8 C 14,6 C 0,0 C 69 % 76 % 0 % 1012,4 hPa 0,0 l/m 1,1 km/h (1 Bft) W-SW 247 0 min 0,0 UV-I 9,3 C 14,6 C 1,8 km/h (1 Bft)
04.10.2012 02:25 14,9 C 19,4 C 14,3 C 14,8 C 14,6 C 0,0 C 69 % 76 % 0 % 1012,5 hPa 0,0 l/m 1,3 km/h (1 Bft) NO 45 0 min 0,0 UV-I 9,3 C 14,6 C 2,3 km/h (1 Bft)
04.10.2012 02:30 14,9 C 19,4 C 14,2 C 14,8 C 14,7 C 0,0 C 69 % 76 % 0 % 1012,5 hPa 0,0 l/m 1,6 km/h (1 Bft) S 180 0 min 0,0 UV-I 9,3 C 14,7 C 3,5 km/h (1 Bft)
04.10.2012 02:35 15,0 C 19,4 C 14,3 C 14,9 C 14,8 C 0,0 C 69 % 76 % 0 % 1012,5 hPa 0,0 l/m 1,9 km/h (1 Bft) SW 225 0 min 0,0 UV-I 9,4 C 14,8 C 2,3 km/h (1 Bft)
04.10.2012 02:40 15,1 C 19,4 C 14,4 C 15,0 C 14,9 C 0,0 C 69 % 76 % 0 % 1012,5 hPa 0,0 l/m 1,8 km/h (1 Bft) W 270 0 min 0,0 UV-I 9,5 C 14,9 C 2,1 km/h (1 Bft)
04.10.2012 02:45 15,0 C 19,4 C 14,5 C 15,0 C 14,9 C 0,0 C 69 % 76 % 0 % 1012,6 hPa 0,0 l/m 1,8 km/h (1 Bft) W-SW 247 0 min 0,0 UV-I 9,4 C 14,9 C 4,5 km/h (1 Bft)
04.10.2012 02:50 15,1 C 19,4 C 14,4 C 15,1 C 15,0 C 0,0 C 69 % 76 % 0 % 1012,6 hPa 0,0 l/m 1,9 km/h (1 Bft) O-SO 112 0 min 0,0 UV-I 9,5 C 15,0 C 3,5 km/h (1 Bft)
04.10.2012 02:55 15,1 C 19,4 C 14,5 C 15,1 C 15,0 C 0,0 C 69 % 76 % 0 % 1012,6 hPa 0,0 l/m 1,8 km/h (1 Bft) W-SW 247 0 min 0,0 UV-I 9,5 C 15,0 C 6,1 km/h (2 Bft)
04.10.2012 03:00 15,2 C 19,4 C 14,5 C 15,1 C 15,0 C 0,0 C 69 % 75 % 0 % 1012,6 hPa 0,0 l/m 1,4 km/h (1 Bft) SW 225 0 min 0,0 UV-I 9,6 C 15,0 C 0,0 km/h (0 Bft)
04.10.2012 03:05 15,2 C 19,4 C 14,6 C 15,1 C 15,0 C 0,0 C 69 % 75 % 0 % 1012,2 hPa 0,0 l/m 1,8 km/h (1 Bft) S-SW 202 0 min 0,0 UV-I 9,6 C 15,0 C 8,4 km/h (2 Bft)
04.10.2012 03:10 15,2 C 19,4 C 14,7 C 15,2 C 15,1 C 0,0 C 69 % 75 % 0 % 1012,2 hPa 0,0 l/m 2,1 km/h (1 Bft) W 270 0 min 0,0 UV-I 9,6 C 15,1 C 5,0 km/h (1 Bft)
04.10.2012 03:15 15,3 C 19,4 C 14,7 C 15,3 C 15,2 C 0,0 C 69 % 75 % 0 % 1012,2 hPa 0,0 l/m 2,7 km/h (1 Bft) N-NW 337 0 min 0,0 UV-I 9,6 C 15,2 C 9,0 km/h (2 Bft)
04.10.2012 03:20 15,4 C 19,4 C 14,8 C 15,3 C 15,2 C 0,0 C 68 % 75 % 0 % 1012,2 hPa 0,0 l/m 2,7 km/h (1 Bft) N-NW 337 0 min 0,0 UV-I 9,5 C 15,2 C 9,7 km/h (2 Bft)
04.10.2012 03:25 15,5 C 19,4 C 14,9 C 15,4 C 15,3 C 0,0 C 68 % 74 % 0 % 1012,2 hPa 0,0 l/m 2,7 km/h (1 Bft) SO 135 0 min 0,0 UV-I 9,6 C 15,3 C 2,3 km/h (1 Bft)
04.10.2012 03:30 15,4 C 19,4 C 14,8 C 15,3 C 15,2 C 0,0 C 68 % 74 % 0 % 1012,2 hPa 0,0 l/m 2,3 km/h (1 Bft) S 180 0 min 0,0 UV-I 9,5 C 15,2 C 6,8 km/h (2 Bft)
04.10.2012 03:35 15,4 C 19,3 C 14,8 C 15,3 C 15,2 C 0,0 C 68 % 74 % 0 % 1012,2 hPa 0,0 l/m 2,3 km/h (1 Bft) SW 225 0 min 0,0 UV-I 9,5 C 15,2 C 5,1 km/h (1 Bft)
04.10.2012 03:40 15,5 C 19,4 C 14,9 C 15,4 C 15,3 C 0,0 C 67 % 73 % 0 % 1012,2 hPa 0,0 l/m 3,1 km/h (1 Bft) S 180 0 min 0,0 UV-I 9,4 C 15,3 C 2,9 km/h (1 Bft)
04.10.2012 03:45 15,5 C 19,4 C 14,9 C 15,4 C 15,3 C 0,0 C 67 % 73 % 0 % 1011,4 hPa 0,0 l/m 3,4 km/h (1 Bft) S-SW 202 0 min 0,0 UV-I 9,4 C 15,3 C 2,9 km/h (1 Bft)
04.10.2012 03:50 15,5 C 19,4 C 14,8 C 15,4 C 15,2 C 0,0 C 67 % 73 % 0 % 1011,4 hPa 0,0 l/m 3,2 km/h (1 Bft) SW 225 0 min 0,0 UV-I 9,4 C 15,2 C 5,8 km/h (2 Bft)
04.10.2012 03:55 15,5 C 19,4 C 14,8 C 15,4 C 15,1 C 0,0 C 67 % 73 % 0 % 1011,4 hPa 0,0 l/m 3,1 km/h (1 Bft) S 180 0 min 0,0 UV-I 9,4 C 15,1 C 2,9 km/h (1 Bft)
04.10.2012 04:00 15,4 C 19,4 C 14,9 C 15,3 C 15,1 C 0,0 C 67 % 73 % 0 % 1011,4 hPa 0,0 l/m 3,4 km/h (1 Bft) S-SO 157 0 min 0,0 UV-I 9,3 C 15,1 C 2,7 km/h (1 Bft)
04.10.2012 04:05 15,5 C 19,4 C 14,8 C 15,3 C 15,0 C 0,0 C 67 % 73 % 0 % 1011,5 hPa 0,0 l/m 2,3 km/h (1 Bft) SW 225 0 min 0,0 UV-I 9,4 C 15,0 C 3,2 km/h (1 Bft)
04.10.2012 04:10 15,3 C 19,4 C 14,8 C 15,2 C 14,9 C 0,0 C 67 % 73 % 0 % 1011,5 hPa 0,0 l/m 1,6 km/h (1 Bft) S-SO 157 0 min 0,0 UV-I 9,2 C 14,9 C 4,5 km/h (1 Bft)
04.10.2012 04:15 15,3 C 19,4 C 14,8 C 15,2 C 14,9 C 0,0 C 67 % 73 % 0 % 1011,5 hPa 0,0 l/m 1,9 km/h (1 Bft) SO 135 0 min 0,0 UV-I 9,2 C 14,9 C 2,3 km/h (1 Bft)
04.10.2012 04:20 15,3 C 19,4 C 14,8 C 15,2 C 15,0 C 0,0 C 67 % 73 % 0 % 1011,5 hPa 0,0 l/m 2,4 km/h (1 Bft) W 270 0 min 0,0 UV-I 9,2 C 15,0 C 4,3 km/h (1 Bft)
04.10.2012 04:25 15,3 C 19,4 C 14,8 C 15,3 C 15,2 C 0,0 C 67 % 73 % 0 % 1011,8 hPa 0,0 l/m 2,6 km/h (1 Bft) SO 135 0 min 0,0 UV-I 9,2 C 15,2 C 4,0 km/h (1 Bft)
04.10.2012 04:30 15,3 C 19,4 C 14,8 C 15,3 C 15,2 C 0,0 C 67 % 73 % 0 % 1011,8 hPa 0,0 l/m 2,7 km/h (1 Bft) S-SO 157 0 min 0,0 UV-I 9,2 C 15,2 C 3,9 km/h (1 Bft)
04.10.2012 04:35 15,4 C 19,4 C 14,8 C 15,4 C 15,3 C 0,0 C 67 % 73 % 0 % 1011,8 hPa 0,0 l/m 2,7 km/h (1 Bft) O 90 0 min 0,0 UV-I 9,3 C 15,3 C 2,3 km/h (1 Bft)
04.10.2012 04:40 15,5 C 19,4 C 14,9 C 15,5 C 15,4 C 0,0 C 67 % 73 % 0 % 1011,8 hPa 0,0 l/m 2,6 km/h (1 Bft) S-SO 157 0 min 0,0 UV-I 9,4 C 15,4 C 9,8 km/h (2 Bft)
04.10.2012 04:45 15,5 C 19,4 C 14,8 C 15,5 C 15,4 C 0,0 C 67 % 73 % 0 % 1011,7 hPa 0,0 l/m 2,4 km/h (1 Bft) W-SW 247 0 min 0,0 UV-I 9,4 C 15,4 C 1,8 km/h (1 Bft)
04.10.2012 04:50 15,5 C 19,4 C 14,8 C 15,5 C 15,4 C 0,0 C 67 % 73 % 0 % 1011,7 hPa 0,0 l/m 1,9 km/h (1 Bft) SO 135 0 min 0,0 UV-I 9,4 C 15,4 C 2,4 km/h (1 Bft)
04.10.2012 04:55 15,4 C 19,4 C 14,8 C 15,4 C 15,4 C 0,0 C 67 % 73 % 0 % 1011,7 hPa 0,0 l/m 2,3 km/h (1 Bft) NO 45 0 min 0,0 UV-I 9,3 C 15,4 C 2,6 km/h (1 Bft)
04.10.2012 05:00 15,5 C 19,4 C 14,8 C 15,5 C 15,4 C 0,0 C 67 % 73 % 0 % 1011,7 hPa 0,0 l/m 2,3 km/h (1 Bft) SO 135 0 min 0,0 UV-I 9,4 C 15,4 C 3,7 km/h (1 Bft)
04.10.2012 05:05 15,5 C 19,4 C 14,8 C 15,5 C 15,4 C 0,0 C 67 % 73 % 0 % 1011,2 hPa 0,0 l/m 2,3 km/h (1 Bft) S-SO 157 0 min 0,0 UV-I 9,4 C 15,4 C 2,9 km/h (1 Bft)
04.10.2012 05:10 15,5 C 19,4 C 14,8 C 15,5 C 15,4 C 0,0 C 67 % 74 % 0 % 1011,2 hPa 0,0 l/m 2,3 km/h (1 Bft) NW 315 0 min 0,0 UV-I 9,4 C 15,4 C 2,9 km/h (1 Bft)
04.10.2012 05:15 15,5 C 19,4 C 14,8 C 15,5 C 15,4 C 0,0 C 67 % 73 % 0 % 1011,2 hPa 0,0 l/m 2,3 km/h (1 Bft) S 180 0 min 0,0 UV-I 9,4 C 15,4 C 2,4 km/h (1 Bft)
04.10.2012 05:20 15,5 C 19,4 C 14,7 C 15,4 C 15,3 C 0,0 C 67 % 73 % 0 % 1011,2 hPa 0,0 l/m 2,4 km/h (1 Bft) W-NW 292 0 min 0,0 UV-I 9,4 C 15,3 C 3,5 km/h (1 Bft)
04.10.2012 05:25 15,5 C 19,4 C 14,8 C 15,4 C 15,3 C 0,0 C 67 % 73 % 0 % 1011,5 hPa 0,0 l/m 2,4 km/h (1 Bft) NO 45 0 min 0,0 UV-I 9,4 C 15,3 C 2,6 km/h (1 Bft)
04.10.2012 05:30 15,4 C 19,4 C 14,9 C 15,4 C 15,4 C 0,0 C 67 % 73 % 0 % 1011,5 hPa 0,0 l/m 2,9 km/h (1 Bft) SW 225 0 min 0,0 UV-I 9,3 C 15,4 C 3,5 km/h (1 Bft)
04.10.2012 05:35 15,4 C 19,4 C 14,8 C 15,4 C 15,4 C 0,0 C 67 % 73 % 0 % 1011,5 hPa 0,0 l/m 2,9 km/h (1 Bft) S 180 0 min 0,0 UV-I 9,3 C 15,4 C 3,1 km/h (1 Bft)
04.10.2012 05:40 15,5 C 19,4 C 14,7 C 15,4 C 15,3 C 0,0 C 67 % 74 % 0 % 1011,5 hPa 0,0 l/m 2,3 km/h (1 Bft) W-SW 247 0 min 0,0 UV-I 9,4 C 15,3 C 5,0 km/h (1 Bft)
04.10.2012 05:45 15,5 C 19,4 C 14,7 C 15,4 C 15,2 C 0,0 C 67 % 74 % 0 % 1011,4 hPa 0,0 l/m 2,1 km/h (1 Bft) S-SO 157 0 min 0,0 UV-I 9,4 C 15,2 C 3,4 km/h (1 Bft)
04.10.2012 05:50 15,4 C 19,4 C 14,8 C 15,3 C 15,2 C 0,0 C 67 % 73 % 0 % 1011,4 hPa 0,0 l/m 2,3 km/h (1 Bft) NW 315 0 min 0,0 UV-I 9,3 C 15,2 C 0,0 km/h (0 Bft)
04.10.2012 05:55 15,4 C 19,4 C 14,8 C 15,3 C 15,2 C 0,0 C 67 % 74 % 0 % 1011,4 hPa 0,0 l/m 2,1 km/h (1 Bft) S-SW 202 0 min 0,0 UV-I 9,3 C 15,2 C 1,9 km/h (1 Bft)
04.10.2012 06:00 15,5 C 19,4 C 14,6 C 15,4 C 15,1 C 0,0 C 67 % 74 % 0 % 1011,4 hPa 0,0 l/m 2,3 km/h (1 Bft) NW 315 0 min 0,0 UV-I 9,4 C 15,1 C 2,9 km/h (1 Bft)
04.10.2012 06:05 15,5 C 19,4 C 14,7 C 15,3 C 15,0 C 0,0 C 67 % 74 % 0 % 1011,2 hPa 0,0 l/m 2,1 km/h (1 Bft) W-SW 247 0 min 0,0 UV-I 9,4 C 15,0 C 0,0 km/h (0 Bft)
04.10.2012 06:10 15,3 C 19,4 C 14,7 C 15,2 C 14,9 C 0,0 C 67 % 74 % 0 % 1011,2 hPa 0,0 l/m 1,4 km/h (1 Bft) SO 135 0 min 0,0 UV-I 9,2 C 14,9 C 2,3 km/h (1 Bft)
04.10.2012 06:15 15,3 C 19,4 C 14,6 C 15,2 C 14,9 C 0,0 C 67 % 74 % 0 % 1011,2 hPa 0,0 l/m 1,9 km/h (1 Bft) S 180 0 min 0,0 UV-I 9,2 C 14,9 C 4,8 km/h (1 Bft)
04.10.2012 06:20 15,3 C 19,4 C 14,7 C 15,2 C 14,9 C 0,0 C 67 % 74 % 0 % 1011,2 hPa 0,0 l/m 2,6 km/h (1 Bft) SW 225 0 min 0,0 UV-I 9,2 C 14,9 C 10,5 km/h (2 Bft)
04.10.2012 06:25 15,3 C 19,4 C 14,8 C 15,2 C 15,0 C 0,0 C 67 % 73 % 0 % 1010,9 hPa 0,0 l/m 2,1 km/h (1 Bft) N-NW 337 0 min 0,0 UV-I 9,2 C 15,0 C 3,7 km/h (1 Bft)
04.10.2012 06:30 15,3 C 19,4 C 14,7 C 15,2 C 15,0 C 0,0 C 67 % 74 % 0 % 1010,9 hPa 0,0 l/m 2,1 km/h (1 Bft) SW 225 0 min 0,0 UV-I 9,2 C 15,0 C 3,5 km/h (1 Bft)
04.10.2012 06:35 15,3 C 19,4 C 14,7 C 15,2 C 15,0 C 0,0 C 67 % 74 % 0 % 1010,9 hPa 0,0 l/m 2,4 km/h (1 Bft) S-SO 157 0 min 0,0 UV-I 9,2 C 15,0 C 4,7 km/h (1 Bft)
04.10.2012 06:41 15,3 C 19,4 C 14,7 C 15,2 C 15,1 C 0,0 C 68 % 74 % 0 % 1011,0 hPa 0,0 l/m 2,6 km/h (1 Bft) N 0 0 min 0,0 UV-I 9,4 C 15,1 C 2,4 km/h (1 Bft)
04.10.2012 06:55 15,5 C 19,5 C 14,8 C 15,4 C 15,2 C 0,0 C 67 % 73 % 0 % 1011,0 hPa 0,0 l/m 3,2 km/h (1 Bft) SO 135 0 min 0,0 UV-I 9,4 C 15,2 C 2,9 km/h (1 Bft)
04.10.2012 07:00 15,4 C 19,5 C 14,9 C 15,4 C 15,3 C 0,0 C 67 % 73 % 0 % 1011,0 hPa 0,0 l/m 3,7 km/h (1 Bft) S 180 0 min 0,0 UV-I 9,3 C 15,3 C 10,8 km/h (2 Bft)
04.10.2012 07:05 15,5 C 19,5 C 14,9 C 15,5 C 15,4 C 0,0 C 67 % 73 % 0 % 1010,5 hPa 0,0 l/m 3,7 km/h (1 Bft) W-SW 247 0 min 0,0 UV-I 9,4 C 15,4 C 2,9 km/h (1 Bft)
04.10.2012 07:10 15,5 C 19,5 C 14,9 C 15,5 C 15,4 C 0,0 C 67 % 73 % 0 % 1010,5 hPa 0,0 l/m 3,5 km/h (1 Bft) N-NW 337 0 min 0,0 UV-I 9,4 C 15,4 C 5,8 km/h (2 Bft)
04.10.2012 07:15 15,5 C 19,5 C 14,9 C 15,4 C 15,3 C 0,0 C 67 % 73 % 0 % 1010,5 hPa 0,0 l/m 3,1 km/h (1 Bft) S-SO 157 0 min 0,0 UV-I 9,4 C 15,3 C 5,3 km/h (1 Bft)
04.10.2012 07:20 15,5 C 19,5 C 14,9 C 15,4 C 15,2 C 0,0 C 68 % 73 % 0 % 1010,5 hPa 0,0 l/m 2,9 km/h (1 Bft) S 180 0 min 0,0 UV-I 9,6 C 15,2 C 2,9 km/h (1 Bft)
04.10.2012 07:25 15,5 C 19,5 C 14,8 C 15,4 C 15,2 C 0,0 C 68 % 73 % 0 % 1010,8 hPa 0,0 l/m 2,7 km/h (1 Bft) SO 135 0 min 0,0 UV-I 9,6 C 15,2 C 4,8 km/h (1 Bft)
04.10.2012 07:30 15,4 C 19,5 C 14,8 C 15,4 C 15,3 C 0,0 C 68 % 74 % 0 % 1010,8 hPa 0,0 l/m 2,7 km/h (1 Bft) W-SW 247 0 min 0,0 UV-I 9,5 C 15,3 C 3,2 km/h (1 Bft)
04.10.2012 07:35 15,5 C 19,5 C 14,9 C 15,4 C 15,3 C 0,0 C 68 % 74 % 0 % 1010,8 hPa 0,0 l/m 3,1 km/h (1 Bft) SO 135 0 min 0,0 UV-I 9,6 C 15,3 C 3,9 km/h (1 Bft)
04.10.2012 07:40 15,5 C 19,5 C 14,8 C 15,5 C 15,4 C 0,0 C 68 % 74 % 0 % 1010,8 hPa 0,0 l/m 3,2 km/h (1 Bft) SO 135 0 min 0,0 UV-I 9,6 C 15,4 C 7,4 km/h (2 Bft)
04.10.2012 07:45 15,5 C 19,5 C 14,8 C 15,5 C 15,4 C 0,0 C 68 % 74 % 0 % 1010,0 hPa 0,0 l/m 3,7 km/h (1 Bft) O-SO 112 0 min 0,0 UV-I 9,6 C 15,4 C 8,7 km/h (2 Bft)
04.10.2012 07:50 15,5 C 19,5 C 14,9 C 15,5 C 15,4 C 0,0 C 68 % 74 % 0 % 1010,0 hPa 0,0 l/m 3,5 km/h (1 Bft) S 180 0 min 0,0 UV-I 9,6 C 15,4 C 4,3 km/h (1 Bft)
04.10.2012 07:55 15,5 C 19,5 C 14,8 C 15,4 C 15,3 C 0,0 C 68 % 74 % 0 % 1010,0 hPa 0,0 l/m 3,2 km/h (1 Bft) S 180 0 min 0,0 UV-I 9,6 C 15,3 C 2,4 km/h (1 Bft)
04.10.2012 08:00 15,4 C 19,5 C 14,8 C 15,3 C 15,2 C 0,0 C 69 % 74 % 0 % 1010,0 hPa 0,0 l/m 3,1 km/h (1 Bft) S-SO 157 0 min 0,0 UV-I 9,7 C 15,2 C 12,9 km/h (3 Bft)
04.10.2012 08:05 15,3 C 19,5 C 14,9 C 15,3 C 15,2 C 0,0 C 69 % 74 % 0 % 1010,6 hPa 0,0 l/m 2,7 km/h (1 Bft) S-SW 202 0 min 0,0 UV-I 9,6 C 15,2 C 7,9 km/h (2 Bft)
04.10.2012 08:10 15,3 C 19,5 C 14,8 C 15,3 C 15,2 C 0,0 C 69 % 74 % 0 % 1010,6 hPa 0,0 l/m 2,7 km/h (1 Bft) SO 135 0 min 0,0 UV-I 9,6 C 15,2 C 6,6 km/h (2 Bft)
04.10.2012 08:15 15,2 C 19,5 C 14,7 C 15,2 C 15,1 C 0,0 C 69 % 75 % 0 % 1010,6 hPa 0,0 l/m 2,9 km/h (1 Bft) S 180 0 min 0,0 UV-I 9,6 C 15,1 C 6,6 km/h (2 Bft)
04.10.2012 08:20 15,2 C 19,5 C 14,7 C 15,1 C 15,0 C 0,0 C 70 % 75 % 0 % 1010,6 hPa 0,0 l/m 2,6 km/h (1 Bft) W-NW 292 0 min 0,0 UV-I 9,8 C 15,0 C 3,9 km/h (1 Bft)
04.10.2012 08:25 15,2 C 19,5 C 14,7 C 15,2 C 15,1 C 0,0 C 70 % 75 % 0 % 1010,4 hPa 0,0 l/m 2,6 km/h (1 Bft) SO 135 0 min 0,0 UV-I 9,8 C 15,1 C 0,0 km/h (0 Bft)
04.10.2012 08:30 15,3 C 19,5 C 14,8 C 15,3 C 15,3 C 0,0 C 70 % 75 % 0 % 1010,4 hPa 0,0 l/m 1,9 km/h (1 Bft) SO 135 0 min 0,0 UV-I 9,9 C 15,3 C 3,1 km/h (1 Bft)
04.10.2012 08:35 15,2 C 19,5 C 14,8 C 15,5 C 15,5 C 0,3 C 70 % 75 % 8 % 1010,4 hPa 0,0 l/m 2,3 km/h (1 Bft) SO 135 0 min 0,0 UV-I 9,8 C 15,5 C 4,7 km/h (1 Bft)
04.10.2012 08:40 15,3 C 19,5 C 14,9 C 15,7 C 15,7 C 0,4 C 70 % 75 % 11 % 1010,4 hPa 0,0 l/m 3,1 km/h (1 Bft) S-SW 202 0 min 0,0 UV-I 9,9 C 15,7 C 14,5 km/h (3 Bft)
04.10.2012 08:45 15,4 C 19,5 C 15,1 C 15,9 C 15,9 C 0,5 C 70 % 75 % 13 % 1010,2 hPa 0,0 l/m 3,4 km/h (1 Bft) N-NW 337 0 min 0,0 UV-I 10,0 C 15,9 C 2,7 km/h (1 Bft)
04.10.2012 08:50 15,5 C 19,4 C 15,1 C 16,0 C 16,0 C 0,5 C 70 % 75 % 13 % 1010,2 hPa 0,0 l/m 2,7 km/h (1 Bft) O-NO 67 0 min 0,0 UV-I 10,1 C 16,0 C 3,9 km/h (1 Bft)
04.10.2012 08:55 15,5 C 19,4 C 15,1 C 16,1 C 16,1 C 0,6 C 70 % 75 % 16 % 1010,2 hPa 0,0 l/m 2,9 km/h (1 Bft) SO 135 0 min 0,0 UV-I 10,1 C 16,1 C 6,3 km/h (2 Bft)
04.10.2012 09:00 15,6 C 19,4 C 15,2 C 16,1 C 16,1 C 0,5 C 70 % 75 % 13 % 1010,2 hPa 0,0 l/m 3,2 km/h (1 Bft) S-SO 157 0 min 0,0 UV-I 10,1 C 16,1 C 7,9 km/h (2 Bft)
04.10.2012 09:05 15,7 C 19,4 C 15,3 C 16,2 C 16,2 C 0,5 C 70 % 75 % 13 % 1009,7 hPa 0,0 l/m 3,2 km/h (1 Bft) O-NO 67 0 min 0,0 UV-I 10,2 C 16,2 C 5,1 km/h (1 Bft)
04.10.2012 09:10 15,6 C 19,4 C 15,2 C 16,3 C 16,3 C 0,7 C 70 % 75 % 18 % 1009,7 hPa 0,0 l/m 2,9 km/h (1 Bft) S 180 0 min 0,0 UV-I 10,1 C 16,3 C 3,9 km/h (1 Bft)
04.10.2012 09:15 15,7 C 19,4 C 15,4 C 16,5 C 16,5 C 0,8 C 70 % 75 % 21 % 1009,7 hPa 0,0 l/m 2,6 km/h (1 Bft) S-SO 157 0 min 0,0 UV-I 10,2 C 16,5 C 0,0 km/h (0 Bft)
04.10.2012 09:20 15,9 C 19,4 C 15,5 C 16,6 C 16,6 C 0,7 C 70 % 75 % 18 % 1009,7 hPa 0,0 l/m 2,9 km/h (1 Bft) S 180 0 min 0,0 UV-I 10,4 C 16,6 C 2,9 km/h (1 Bft)
04.10.2012 09:25 15,8 C 19,4 C 15,5 C 16,6 C 16,6 C 0,8 C 70 % 75 % 21 % 1009,9 hPa 0,0 l/m 3,1 km/h (1 Bft) S-SW 202 0 min 0,0 UV-I 10,3 C 16,6 C 3,5 km/h (1 Bft)
04.10.2012 09:30 15,9 C 19,4 C 15,5 C 16,5 C 16,5 C 0,6 C 69 % 75 % 16 % 1009,9 hPa 0,0 l/m 2,7 km/h (1 Bft) S 180 0 min 0,0 UV-I 10,2 C 16,5 C 5,0 km/h (1 Bft)
04.10.2012 09:35 15,9 C 19,4 C 15,5 C 16,6 C 16,6 C 0,7 C 70 % 75 % 18 % 1009,9 hPa 0,0 l/m 2,3 km/h (1 Bft) S 180 0 min 0,0 UV-I 10,4 C 16,6 C 2,4 km/h (1 Bft)
04.10.2012 09:40 16,1 C 19,4 C 15,5 C 16,8 C 16,8 C 0,7 C 69 % 75 % 18 % 1009,9 hPa 0,0 l/m 2,9 km/h (1 Bft) S-SO 157 0 min 0,0 UV-I 10,4 C 16,8 C 3,5 km/h (1 Bft)
04.10.2012 09:45 16,1 C 19,4 C 15,7 C 16,9 C 16,9 C 0,8 C 69 % 74 % 21 % 1010,3 hPa 0,0 l/m 3,7 km/h (1 Bft) W-NW 292 0 min 0,1 UV-I 10,4 C 16,9 C 2,9 km/h (1 Bft)
04.10.2012 09:50 16,2 C 19,4 C 15,8 C 17,2 C 17,2 C 1,0 C 69 % 74 % 26 % 1010,3 hPa 0,0 l/m 3,2 km/h (1 Bft) S 180 0 min 0,2 UV-I 10,5 C 17,2 C 8,2 km/h (2 Bft)
04.10.2012 09:55 16,3 C 19,4 C 15,9 C 17,2 C 17,2 C 0,9 C 68 % 74 % 24 % 1010,3 hPa 0,0 l/m 3,4 km/h (1 Bft) S 180 0 min 0,2 UV-I 10,4 C 17,2 C 12,2 km/h (2 Bft)
04.10.2012 10:00 16,5 C 19,4 C 15,9 C 17,4 C 17,4 C 0,9 C 68 % 74 % 24 % 1010,3 hPa 0,0 l/m 3,9 km/h (1 Bft) O-NO 67 0 min 0,2 UV-I 10,6 C 17,4 C 2,3 km/h (1 Bft)
04.10.2012 10:05 16,5 C 19,5 C 16,0 C 17,4 C 17,4 C 0,9 C 68 % 74 % 24 % 1010,0 hPa 0,0 l/m 3,5 km/h (1 Bft) S 180 0 min 0,2 UV-I 10,6 C 17,4 C 3,5 km/h (1 Bft)
04.10.2012 10:10 16,7 C 19,5 C 16,1 C 17,7 C 17,7 C 1,0 C 68 % 74 % 26 % 1010,0 hPa 0,0 l/m 2,9 km/h (1 Bft) SO 135 0 min 0,2 UV-I 10,8 C 17,7 C 6,1 km/h (2 Bft)
04.10.2012 10:15 16,7 C 19,5 C 16,3 C 17,9 C 17,9 C 1,2 C 68 % 73 % 32 % 1010,0 hPa 0,0 l/m 3,5 km/h (1 Bft) NW 315 0 min 0,4 UV-I 10,8 C 17,9 C 2,7 km/h (1 Bft)
04.10.2012 10:20 16,9 C 19,5 C 16,4 C 18,1 C 18,1 C 1,2 C 67 % 72 % 32 % 1010,0 hPa 0,0 l/m 4,3 km/h (1 Bft) W-SW 247 0 min 0,4 UV-I 10,7 C 18,1 C 5,5 km/h (1 Bft)
04.10.2012 10:25 16,9 C 19,5 C 16,4 C 18,1 C 18,1 C 1,2 C 67 % 72 % 32 % 1009,8 hPa 0,0 l/m 3,5 km/h (1 Bft) S 180 0 min 0,4 UV-I 10,7 C 18,1 C 6,0 km/h (2 Bft)
04.10.2012 10:30 17,1 C 19,5 C 16,4 C 18,1 C 18,1 C 1,0 C 67 % 73 % 26 % 1009,8 hPa 0,0 l/m 2,6 km/h (1 Bft) S-SW 202 0 min 0,3 UV-I 10,9 C 18,1 C 5,3 km/h (1 Bft)
04.10.2012 10:35 17,0 C 19,5 C 16,4 C 18,1 C 18,1 C 1,1 C 66 % 72 % 29 % 1009,8 hPa 0,0 l/m 3,7 km/h (1 Bft) W-NW 292 0 min 0,3 UV-I 10,6 C 18,1 C 10,0 km/h (2 Bft)
04.10.2012 10:40 17,1 C 19,5 C 16,5 C 18,1 C 18,1 C 1,0 C 66 % 72 % 26 % 1009,8 hPa 0,0 l/m 4,2 km/h (1 Bft) O-NO 67 0 min 0,4 UV-I 10,7 C 18,1 C 3,7 km/h (1 Bft)
04.10.2012 10:45 17,2 C 19,5 C 16,5 C 18,2 C 18,2 C 1,0 C 66 % 72 % 26 % 1009,2 hPa 0,0 l/m 3,1 km/h (1 Bft) SO 135 0 min 0,4 UV-I 10,8 C 18,2 C 7,1 km/h (2 Bft)
04.10.2012 10:50 17,2 C 19,5 C 16,6 C 18,3 C 18,3 C 1,1 C 66 % 72 % 29 % 1009,2 hPa 0,0 l/m 2,4 km/h (1 Bft) S 180 0 min 0,4 UV-I 10,8 C 18,3 C 5,8 km/h (2 Bft)
04.10.2012 10:55 17,3 C 19,5 C 16,7 C 18,3 C 18,3 C 1,0 C 66 % 72 % 26 % 1009,2 hPa 0,0 l/m 2,4 km/h (1 Bft) SO 135 0 min 0,4 UV-I 10,9 C 18,3 C 4,2 km/h (1 Bft)
04.10.2012 11:00 17,3 C 19,5 C 16,6 C 18,4 C 18,4 C 1,1 C 66 % 72 % 29 % 1009,2 hPa 0,0 l/m 1,6 km/h (1 Bft) O 90 0 min 0,4 UV-I 10,9 C 18,4 C 2,9 km/h (1 Bft)
04.10.2012 11:05 17,4 C 19,5 C 16,8 C 18,4 C 18,4 C 1,0 C 66 % 72 % 26 % 1009,1 hPa 0,0 l/m 1,8 km/h (1 Bft) S-SO 157 0 min 0,4 UV-I 11,0 C 18,4 C 3,5 km/h (1 Bft)
04.10.2012 11:10 17,5 C 19,5 C 16,7 C 18,5 C 18,5 C 1,0 C 66 % 72 % 26 % 1009,1 hPa 0,0 l/m 2,6 km/h (1 Bft) O-NO 67 0 min 0,4 UV-I 11,1 C 18,5 C 2,7 km/h (1 Bft)
04.10.2012 11:15 17,5 C 19,5 C 16,8 C 18,5 C 18,5 C 1,0 C 66 % 72 % 26 % 1009,1 hPa 0,0 l/m 3,2 km/h (1 Bft) S 180 0 min 0,4 UV-I 11,1 C 18,5 C 3,7 km/h (1 Bft)
04.10.2012 11:20 17,5 C 19,5 C 16,9 C 18,5 C 18,5 C 1,0 C 66 % 72 % 26 % 1009,1 hPa 0,0 l/m 2,7 km/h (1 Bft) SW 225 0 min 0,4 UV-I 11,1 C 18,5 C 3,1 km/h (1 Bft)
04.10.2012 11:25 17,5 C 19,5 C 16,9 C 18,6 C 18,6 C 1,1 C 65 % 72 % 29 % 1008,8 hPa 0,0 l/m 2,3 km/h (1 Bft) SO 135 0 min 0,5 UV-I 10,8 C 18,6 C 3,2 km/h (1 Bft)
04.10.2012 11:30 17,6 C 19,5 C 17,1 C 18,8 C 18,8 C 1,2 C 65 % 70 % 32 % 1008,8 hPa 0,0 l/m 3,4 km/h (1 Bft) O-NO 67 0 min 0,6 UV-I 10,9 C 18,8 C 4,2 km/h (1 Bft)
04.10.2012 11:35 17,8 C 19,5 C 17,1 C 18,9 C 18,9 C 1,1 C 64 % 70 % 29 % 1008,8 hPa 0,0 l/m 4,0 km/h (1 Bft) SO 135 0 min 0,6 UV-I 10,9 C 18,9 C 3,5 km/h (1 Bft)
04.10.2012 11:40 17,9 C 19,5 C 17,2 C 19,1 C 19,1 C 1,2 C 64 % 69 % 32 % 1008,8 hPa 0,0 l/m 3,7 km/h (1 Bft) S-SW 202 0 min 0,6 UV-I 11,0 C 19,1 C 10,5 km/h (2 Bft)
04.10.2012 11:45 18,0 C 19,6 C 17,4 C 19,3 C 19,3 C 1,3 C 64 % 69 % 34 % 1008,1 hPa 0,0 l/m 3,7 km/h (1 Bft) W 270 0 min 0,8 UV-I 11,1 C 19,3 C 5,8 km/h (2 Bft)
04.10.2012 11:50 18,0 C 19,6 C 17,5 C 19,6 C 19,6 C 1,6 C 63 % 69 % 42 % 1008,1 hPa 0,0 l/m 3,9 km/h (1 Bft) S-SO 157 0 min 1,0 UV-I 10,8 C 19,6 C 9,7 km/h (2 Bft)
04.10.2012 11:55 18,2 C 19,6 C 17,7 C 19,7 C 19,7 C 1,5 C 63 % 68 % 39 % 1008,1 hPa 0,0 l/m 3,7 km/h (1 Bft) O-NO 67 0 min 1,0 UV-I 11,0 C 19,7 C 2,9 km/h (1 Bft)
04.10.2012 12:00 18,3 C 19,6 C 17,6 C 19,6 C 19,6 C 1,3 C 62 % 68 % 34 % 1008,1 hPa 0,0 l/m 4,5 km/h (1 Bft) O-SO 112 0 min 0,9 UV-I 10,9 C 19,6 C 5,0 km/h (1 Bft)
04.10.2012 12:05 18,3 C 19,6 C 17,6 C 19,6 C 19,6 C 1,3 C 62 % 67 % 34 % 1008,1 hPa 0,0 l/m 5,3 km/h (1 Bft) SO 135 0 min 0,8 UV-I 10,9 C 19,6 C 8,5 km/h (2 Bft)
04.10.2012 12:10 18,2 C 19,6 C 17,7 C 19,4 C 19,4 C 1,2 C 61 % 67 % 32 % 1008,1 hPa 0,0 l/m 6,4 km/h (2 Bft) W 270 0 min 0,7 UV-I 10,6 C 19,4 C 19,0 km/h (3 Bft)
04.10.2012 12:15 18,2 C 19,5 C 17,7 C 19,3 C 19,3 C 1,1 C 62 % 67 % 29 % 1008,1 hPa 0,0 l/m 5,8 km/h (2 Bft) S-SW 202 0 min 0,7 UV-I 10,8 C 19,3 C 4,5 km/h (1 Bft)
04.10.2012 12:20 18,3 C 19,5 C 17,9 C 19,4 C 19,4 C 1,1 C 62 % 67 % 29 % 1008,1 hPa 0,0 l/m 4,8 km/h (1 Bft) N-NW 337 0 min 0,7 UV-I 10,9 C 19,4 C 10,0 km/h (2 Bft)
04.10.2012 12:25 18,3 C 19,5 C 17,9 C 19,4 C 19,4 C 1,1 C 62 % 67 % 29 % 1008,0 hPa 0,0 l/m 3,7 km/h (1 Bft) W-SW 247 0 min 0,7 UV-I 10,9 C 19,4 C 5,6 km/h (1 Bft)
04.10.2012 12:30 18,4 C 19,5 C 17,8 C 19,4 C 19,4 C 1,0 C 61 % 66 % 26 % 1008,0 hPa 0,0 l/m 4,8 km/h (1 Bft) O-SO 112 0 min 0,8 UV-I 10,7 C 19,4 C 12,2 km/h (2 Bft)
04.10.2012 12:35 18,4 C 19,5 C 17,9 C 19,4 C 19,4 C 1,0 C 61 % 66 % 26 % 1008,0 hPa 0,0 l/m 4,8 km/h (1 Bft) S 180 0 min 0,8 UV-I 10,7 C 19,4 C 4,5 km/h (1 Bft)
04.10.2012 12:41 18,4 C 19,5 C 17,9 C 19,4 C 19,4 C 1,0 C 61 % 66 % 26 % 1007,8 hPa 0,0 l/m 3,5 km/h (1 Bft) N 0 0 min 0,7 UV-I 10,7 C 19,4 C 3,1 km/h (1 Bft)
04.10.2012 12:55 18,5 C 19,5 C 18,1 C 19,5 C 19,5 C 1,0 C 60 % 65 % 26 % 1007,8 hPa 0,0 l/m 5,1 km/h (1 Bft) W-SW 247 0 min 0,7 UV-I 10,6 C 19,5 C 5,5 km/h (1 Bft)
04.10.2012 13:00 18,7 C 19,6 C 18,0 C 19,5 C 19,5 C 0,8 C 60 % 65 % 21 % 1007,8 hPa 0,0 l/m 4,2 km/h (1 Bft) O-SO 112 0 min 0,6 UV-I 10,8 C 19,5 C 2,9 km/h (1 Bft)
04.10.2012 13:05 18,6 C 19,6 C 18,0 C 19,4 C 19,4 C 0,8 C 60 % 65 % 21 % 1007,1 hPa 0,0 l/m 4,5 km/h (1 Bft) SW 225 0 min 0,6 UV-I 10,7 C 19,4 C 9,5 km/h (2 Bft)
04.10.2012 13:10 18,6 C 19,6 C 18,0 C 19,4 C 19,4 C 0,8 C 60 % 66 % 21 % 1007,1 hPa 0,0 l/m 6,0 km/h (2 Bft) W-SW 247 0 min 0,6 UV-I 10,7 C 19,4 C 17,4 km/h (3 Bft)
04.10.2012 13:15 18,6 C 19,6 C 18,0 C 19,4 C 19,4 C 0,8 C 59 % 64 % 21 % 1007,1 hPa 0,0 l/m 6,3 km/h (2 Bft) SW 225 0 min 0,7 UV-I 10,4 C 19,4 C 5,5 km/h (1 Bft)
04.10.2012 13:20 18,7 C 19,6 C 18,0 C 19,6 C 19,6 C 0,9 C 60 % 65 % 24 % 1007,1 hPa 0,0 l/m 5,0 km/h (1 Bft) SW 225 0 min 0,8 UV-I 10,8 C 19,6 C 8,0 km/h (2 Bft)
04.10.2012 13:25 18,7 C 19,6 C 18,0 C 19,6 C 19,6 C 0,9 C 59 % 64 % 24 % 1007,4 hPa 0,0 l/m 4,5 km/h (1 Bft) S-SO 157 0 min 0,9 UV-I 10,5 C 19,6 C 6,9 km/h (2 Bft)
04.10.2012 13:30 18,7 C 19,6 C 18,1 C 19,6 C 19,6 C 0,9 C 59 % 64 % 24 % 1007,4 hPa 0,0 l/m 5,8 km/h (2 Bft) SW 225 0 min 0,8 UV-I 10,5 C 19,6 C 29,0 km/h (5 Bft)
04.10.2012 13:35 18,7 C 19,6 C 18,1 C 19,6 C 19,6 C 0,9 C 59 % 64 % 24 % 1007,4 hPa 0,0 l/m 6,6 km/h (2 Bft) S-SO 157 0 min 0,8 UV-I 10,5 C 19,6 C 6,1 km/h (2 Bft)
04.10.2012 13:40 18,7 C 19,6 C 18,3 C 19,8 C 19,8 C 1,1 C 58 % 63 % 29 % 1007,4 hPa 0,0 l/m 6,3 km/h (2 Bft) W-SW 247 0 min 1,0 UV-I 10,3 C 19,8 C 8,5 km/h (2 Bft)
04.10.2012 13:45 18,7 C 19,6 C 18,2 C 19,8 C 19,8 C 1,1 C 58 % 63 % 29 % 1006,9 hPa 0,0 l/m 5,1 km/h (1 Bft) S-SO 157 0 min 1,0 UV-I 10,3 C 19,8 C 7,4 km/h (2 Bft)
04.10.2012 13:50 18,7 C 19,6 C 18,3 C 19,8 C 19,8 C 1,1 C 59 % 63 % 29 % 1006,9 hPa 0,0 l/m 6,1 km/h (2 Bft) SO 135 0 min 0,9 UV-I 10,5 C 19,8 C 32,0 km/h (5 Bft)
04.10.2012 13:55 18,7 C 19,6 C 18,3 C 19,7 C 19,7 C 1,0 C 60 % 64 % 26 % 1006,9 hPa 0,0 l/m 6,4 km/h (2 Bft) N-NW 337 0 min 0,9 UV-I 10,8 C 19,7 C 4,3 km/h (1 Bft)
04.10.2012 14:00 18,5 C 19,6 C 18,3 C 19,7 C 19,7 C 1,2 C 60 % 64 % 32 % 1006,9 hPa 0,0 l/m 6,3 km/h (2 Bft) S 180 0 min 1,0 UV-I 10,6 C 19,7 C 6,4 km/h (2 Bft)
04.10.2012 14:05 18,5 C 19,7 C 18,2 C 19,6 C 19,6 C 1,1 C 60 % 65 % 29 % 1006,1 hPa 0,0 l/m 5,5 km/h (1 Bft) W-SW 247 0 min 0,9 UV-I 10,6 C 19,6 C 6,1 km/h (2 Bft)
04.10.2012 14:10 18,4 C 19,7 C 18,3 C 19,6 C 19,6 C 1,2 C 61 % 66 % 32 % 1006,1 hPa 0,0 l/m 5,1 km/h (1 Bft) S 180 0 min 0,5 UV-I 10,7 C 19,6 C 10,8 km/h (2 Bft)
04.10.2012 14:15 18,4 C 19,7 C 18,3 C 19,8 C 19,8 C 1,4 C 62 % 66 % 37 % 1006,1 hPa 0,0 l/m 5,8 km/h (2 Bft) SW 225 0 min 0,5 UV-I 11,0 C 19,8 C 11,3 km/h (2 Bft)
04.10.2012 14:20 18,5 C 19,7 C 18,3 C 20,0 C 20,0 C 1,5 C 62 % 66 % 39 % 1006,1 hPa 0,0 l/m 6,3 km/h (2 Bft) SO 135 0 min 1,1 UV-I 11,1 C 20,0 C 3,7 km/h (1 Bft)
04.10.2012 14:25 18,5 C 19,7 C 18,3 C 20,0 C 20,0 C 1,5 C 62 % 66 % 39 % 1005,8 hPa 0,0 l/m 6,6 km/h (2 Bft) S-SW 202 0 min 1,1 UV-I 11,1 C 20,0 C 9,7 km/h (2 Bft)
04.10.2012 14:30 18,5 C 19,7 C 18,3 C 20,0 C 20,0 C 1,5 C 61 % 65 % 39 % 1005,8 hPa 0,0 l/m 6,1 km/h (2 Bft) N-NW 337 0 min 1,0 UV-I 10,8 C 20,0 C 7,7 km/h (2 Bft)
04.10.2012 14:35 18,4 C 19,7 C 18,2 C 19,8 C 19,8 C 1,4 C 62 % 66 % 37 % 1005,8 hPa 0,0 l/m 6,3 km/h (2 Bft) O-NO 67 0 min 1,1 UV-I 11,0 C 19,8 C 7,7 km/h (2 Bft)
04.10.2012 14:40 18,5 C 19,7 C 18,3 C 19,5 C 19,5 C 1,0 C 62 % 66 % 26 % 1005,8 hPa 0,0 l/m 6,4 km/h (2 Bft) O-SO 112 0 min 0,7 UV-I 11,1 C 19,5 C 8,2 km/h (2 Bft)
04.10.2012 14:45 18,4 C 19,7 C 18,1 C 19,3 C 19,3 C 0,9 C 62 % 66 % 24 % 1005,5 hPa 0,0 l/m 6,4 km/h (2 Bft) S-SW 202 0 min 0,7 UV-I 11,0 C 19,3 C 9,3 km/h (2 Bft)
04.10.2012 14:50 18,3 C 19,7 C 18,0 C 18,9 C 18,9 C 0,6 C 63 % 66 % 16 % 1005,5 hPa 0,0 l/m 5,8 km/h (2 Bft) O-SO 112 0 min 0,4 UV-I 11,1 C 18,9 C 6,1 km/h (2 Bft)
04.10.2012 14:55 18,3 C 19,7 C 17,9 C 18,8 C 18,8 C 0,5 C 63 % 66 % 13 % 1005,5 hPa 0,0 l/m 5,6 km/h (1 Bft) O-NO 67 0 min 0,4 UV-I 11,1 C 18,8 C 10,1 km/h (2 Bft)
04.10.2012 15:00 18,3 C 19,7 C 18,1 C 18,9 C 18,9 C 0,6 C 63 % 67 % 16 % 1005,5 hPa 0,0 l/m 5,8 km/h (2 Bft) O-NO 67 0 min 0,6 UV-I 11,1 C 18,9 C 3,7 km/h (1 Bft)
04.10.2012 15:05 18,2 C 19,7 C 18,0 C 19,0 C 19,0 C 0,8 C 63 % 67 % 21 % 1005,4 hPa 0,0 l/m 6,4 km/h (2 Bft) S-SW 202 0 min 0,6 UV-I 11,0 C 19,0 C 12,7 km/h (3 Bft)
04.10.2012 15:10 18,3 C 19,8 C 18,1 C 19,2 C 19,2 C 0,9 C 63 % 66 % 24 % 1005,4 hPa 0,0 l/m 7,4 km/h (2 Bft) S-SO 157 0 min 0,6 UV-I 11,1 C 19,2 C 34,6 km/h (5 Bft)
04.10.2012 15:15 18,3 C 19,8 C 18,0 C 19,2 C 19,2 C 0,9 C 63 % 67 % 24 % 1005,4 hPa 0,0 l/m 8,2 km/h (2 Bft) O-NO 67 0 min 0,6 UV-I 11,1 C 19,2 C 24,8 km/h (4 Bft)
04.10.2012 15:20 18,2 C 19,8 C 18,0 C 19,0 C 19,0 C 0,8 C 64 % 67 % 21 % 1005,4 hPa 0,0 l/m 7,2 km/h (2 Bft) SW 225 0 min 0,5 UV-I 11,3 C 19,0 C 2,6 km/h (1 Bft)
04.10.2012 15:25 18,3 C 19,8 C 17,9 C 18,9 C 18,9 C 0,6 C 64 % 67 % 16 % 1005,2 hPa 0,0 l/m 7,6 km/h (2 Bft) N 360 0 min 0,5 UV-I 11,4 C 18,9 C 12,1 km/h (2 Bft)
04.10.2012 15:30 18,0 C 19,8 C 17,7 C 18,4 C 18,4 C 0,4 C 64 % 68 % 11 % 1005,2 hPa 0,0 l/m 6,3 km/h (2 Bft) W-NW 292 0 min 0,0 UV-I 11,1 C 18,4 C 5,5 km/h (1 Bft)
04.10.2012 15:35 18,0 C 19,9 C 17,5 C 17,9 C 17,7 C 0,0 C 64 % 69 % 0 % 1005,2 hPa 0,0 l/m 8,2 km/h (2 Bft) W-SW 247 0 min 0,0 UV-I 11,1 C 17,7 C 19,6 km/h (3 Bft)
04.10.2012 15:40 17,7 C 19,9 C 17,2 C 17,5 C 17,2 C 0,0 C 65 % 69 % 0 % 1005,2 hPa 0,0 l/m 8,5 km/h (2 Bft) SW 225 0 min 0,0 UV-I 11,0 C 17,2 C 9,0 km/h (2 Bft)
04.10.2012 15:45 17,6 C 19,9 C 17,2 C 17,5 C 17,2 C 0,0 C 65 % 70 % 0 % 1004,4 hPa 0,0 l/m 8,5 km/h (2 Bft) W-SW 247 0 min 0,0 UV-I 10,9 C 17,2 C 17,1 km/h (3 Bft)
04.10.2012 15:50 17,5 C 19,9 C 17,0 C 17,2 C 16,4 C 0,0 C 67 % 71 % 0 % 1004,4 hPa 0,0 l/m 9,8 km/h (2 Bft) SW 225 0 min 0,0 UV-I 11,3 C 16,4 C 8,4 km/h (2 Bft)
04.10.2012 15:55 17,3 C 19,9 C 16,9 C 17,0 C 16,2 C 0,0 C 67 % 71 % 0 % 1004,4 hPa 0,0 l/m 9,8 km/h (2 Bft) SW 225 0 min 0,0 UV-I 11,1 C 16,2 C 8,4 km/h (2 Bft)
04.10.2012 16:00 17,3 C 19,9 C 16,8 C 17,0 C 16,5 C 0,0 C 67 % 71 % 0 % 1004,4 hPa 0,0 l/m 8,2 km/h (2 Bft) SO 135 0 min 0,0 UV-I 11,1 C 16,5 C 7,6 km/h (2 Bft)
04.10.2012 16:05 17,1 C 19,9 C 16,8 C 16,9 C 16,5 C 0,0 C 68 % 72 % 0 % 1005,4 hPa 0,0 l/m 7,1 km/h (2 Bft) S-SO 157 0 min 0,0 UV-I 11,1 C 16,5 C 10,8 km/h (2 Bft)
04.10.2012 16:10 16,8 C 19,9 C 16,5 C 16,5 C 16,0 C 0,0 C 69 % 73 % 0 % 1005,4 hPa 0,0 l/m 6,1 km/h (2 Bft) N-NO 22 0 min 0,0 UV-I 11,1 C 16,0 C 9,3 km/h (2 Bft)
04.10.2012 16:15 16,6 C 19,9 C 16,4 C 16,3 C 15,6 C 0,0 C 70 % 74 % 0 % 1005,4 hPa 0,0 l/m 6,8 km/h (2 Bft) NO 45 0 min 0,0 UV-I 11,1 C 15,6 C 12,2 km/h (2 Bft)
04.10.2012 16:20 16,4 C 19,9 C 16,3 C 16,0 C 15,3 C 0,0 C 72 % 75 % 0 % 1005,4 hPa 0,0 l/m 6,4 km/h (2 Bft) S 180 0 min 0,0 UV-I 11,3 C 15,3 C 13,4 km/h (3 Bft)
04.10.2012 16:25 16,4 C 19,9 C 16,1 C 16,0 C 15,2 C 0,0 C 72 % 75 % 0 % 1005,1 hPa 0,0 l/m 6,0 km/h (2 Bft) S-SO 157 0 min 0,1 UV-I 11,3 C 15,2 C 6,8 km/h (2 Bft)
04.10.2012 16:30 16,3 C 19,9 C 16,1 C 16,1 C 15,6 C 0,0 C 71 % 75 % 0 % 1005,1 hPa 0,0 l/m 5,5 km/h (1 Bft) S-SO 157 0 min 0,1 UV-I 11,0 C 15,6 C 5,3 km/h (1 Bft)
04.10.2012 16:35 16,3 C 19,9 C 16,1 C 16,2 C 16,0 C 0,0 C 71 % 75 % 0 % 1005,1 hPa 0,0 l/m 5,8 km/h (2 Bft) S-SO 157 0 min 0,0 UV-I 11,0 C 16,0 C 9,0 km/h (2 Bft)
04.10.2012 16:40 16,4 C 20,0 C 16,2 C 16,4 C 16,3 C 0,0 C 71 % 75 % 0 % 1005,1 hPa 0,0 l/m 7,2 km/h (2 Bft) SW 225 0 min 0,0 UV-I 11,1 C 16,3 C 11,3 km/h (2 Bft)
04.10.2012 16:45 16,4 C 20,0 C 16,1 C 16,3 C 16,2 C 0,0 C 71 % 75 % 0 % 1005,7 hPa 0,0 l/m 8,9 km/h (2 Bft) SO 135 0 min 0,0 UV-I 11,1 C 16,2 C 12,9 km/h (3 Bft)
04.10.2012 16:50 15,7 C 20,5 C 15,2 C 15,5 C 13,9 C 0,0 C 76 % 80 % 0 % 1005,7 hPa 0,7 l/m 14,6 km/h (3 Bft) SW 225 0 min 0,0 UV-I 11,5 C 13,9 C 50,2 km/h (7 Bft)
04.10.2012 16:55 15,1 C 20,4 C 14,2 C 14,6 C 12,6 C 0,0 C 77 % 84 % 0 % 1005,7 hPa 0,0 l/m 16,4 km/h (3 Bft) W-SW 247 0 min 0,0 UV-I 11,1 C 12,6 C 20,6 km/h (4 Bft)
04.10.2012 17:00 14,4 C 20,4 C 13,2 C 13,7 C 11,1 C 0,0 C 77 % 86 % 0 % 1005,7 hPa 0,0 l/m 17,9 km/h (3 Bft) SW 225 0 min 0,0 UV-I 10,4 C 11,1 C 24,6 km/h (4 Bft)
04.10.2012 17:05 13,8 C 20,5 C 12,9 C 12,9 C 10,4 C 0,0 C 78 % 87 % 0 % 1007,2 hPa 0,7 l/m 17,2 km/h (3 Bft) W 270 0 min 0,0 UV-I 10,0 C 10,4 C 17,9 km/h (3 Bft)
04.10.2012 17:10 13,3 C 20,5 C 12,7 C 12,5 C 10,2 C 0,0 C 80 % 88 % 0 % 1007,2 hPa 0,0 l/m 14,0 km/h (3 Bft) S 180 0 min 0,0 UV-I 9,9 C 10,2 C 14,6 km/h (3 Bft)
04.10.2012 17:15 12,8 C 20,5 C 12,5 C 12,1 C 10,3 C 0,0 C 80 % 89 % 0 % 1007,2 hPa 0,0 l/m 12,2 km/h (2 Bft) W-SW 247 0 min 0,0 UV-I 9,4 C 10,3 C 14,0 km/h (3 Bft)
04.10.2012 17:20 12,5 C 20,5 C 12,4 C 12,0 C 10,7 C 0,0 C 81 % 90 % 0 % 1007,2 hPa 0,0 l/m 10,1 km/h (2 Bft) NW 315 0 min 0,0 UV-I 9,3 C 10,7 C 10,1 km/h (2 Bft)
04.10.2012 17:25 12,2 C 20,4 C 12,3 C 11,7 C 10,7 C 0,0 C 81 % 90 % 0 % 1008,1 hPa 0,0 l/m 10,1 km/h (2 Bft) W 270 0 min 0,0 UV-I 9,0 C 10,7 C 22,4 km/h (4 Bft)
04.10.2012 17:30 12,0 C 20,4 C 12,1 C 11,7 C 10,6 C 0,0 C 81 % 90 % 0 % 1008,1 hPa 0,0 l/m 10,8 km/h (2 Bft) W-SW 247 0 min 0,0 UV-I 8,8 C 10,6 C 15,3 km/h (3 Bft)
04.10.2012 17:35 12,0 C 20,3 C 12,1 C 11,7 C 10,7 C 0,0 C 81 % 91 % 0 % 1008,1 hPa 0,0 l/m 11,3 km/h (2 Bft) W-SW 247 0 min 0,0 UV-I 8,8 C 10,7 C 20,0 km/h (4 Bft)
04.10.2012 17:40 12,0 C 20,3 C 11,9 C 11,6 C 10,7 C 0,0 C 80 % 91 % 0 % 1008,1 hPa 0,0 l/m 12,2 km/h (2 Bft) S 180 0 min 0,0 UV-I 8,7 C 10,7 C 9,7 km/h (2 Bft)
04.10.2012 17:45 12,0 C 20,2 C 11,8 C 11,7 C 10,8 C 0,0 C 80 % 91 % 0 % 1008,8 hPa 0,0 l/m 12,7 km/h (3 Bft) W 270 0 min 0,0 UV-I 8,7 C 10,8 C 19,5 km/h (3 Bft)
04.10.2012 17:50 12,1 C 20,2 C 11,8 C 11,9 C 11,2 C 0,0 C 80 % 91 % 0 % 1008,8 hPa 0,0 l/m 11,3 km/h (2 Bft) W-SW 247 0 min 0,0 UV-I 8,8 C 11,2 C 10,1 km/h (2 Bft)
04.10.2012 17:55 12,0 C 20,2 C 11,9 C 11,7 C 11,2 C 0,0 C 80 % 91 % 0 % 1008,8 hPa 0,0 l/m 11,7 km/h (2 Bft) W 270 0 min 0,0 UV-I 8,7 C 11,2 C 18,8 km/h (3 Bft)
04.10.2012 18:00 12,1 C 20,1 C 11,7 C 11,9 C 11,1 C 0,0 C 79 % 91 % 0 % 1008,8 hPa 0,0 l/m 12,1 km/h (2 Bft) SW 225 0 min 0,0 UV-I 8,6 C 11,1 C 12,7 km/h (3 Bft)
04.10.2012 18:05 12,1 C 20,1 C 11,6 C 11,8 C 10,7 C 0,0 C 79 % 91 % 0 % 1009,1 hPa 0,0 l/m 13,4 km/h (3 Bft) W-SW 247 0 min 0,0 UV-I 8,6 C 10,7 C 13,0 km/h (3 Bft)
04.10.2012 18:10 11,8 C 20,1 C 11,5 C 11,4 C 9,6 C 0,0 C 80 % 91 % 0 % 1009,1 hPa 0,0 l/m 13,7 km/h (3 Bft) W-SW 247 0 min 0,0 UV-I 8,5 C 7,6 C 14,5 km/h (3 Bft)
04.10.2012 18:15 11,4 C 20,2 C 11,5 C 10,8 C 9,6 C 0,0 C 80 % 91 % 0 % 1009,1 hPa 0,7 l/m 11,7 km/h (2 Bft) SW 225 0 min 0,0 UV-I 8,1 C 7,9 C 15,0 km/h (3 Bft)
04.10.2012 18:20 10,9 C 20,3 C 11,1 C 10,5 C 9,2 C 0,0 C 82 % 92 % 0 % 1009,1 hPa 0,0 l/m 10,3 km/h (2 Bft) W-SW 247 0 min 0,0 UV-I 7,9 C 7,6 C 16,4 km/h (3 Bft)
04.10.2012 18:25 10,7 C 20,2 C 11,0 C 10,3 C 9,0 C 0,0 C 82 % 91 % 0 % 1009,9 hPa 0,0 l/m 10,6 km/h (2 Bft) SW 225 0 min 0,0 UV-I 7,8 C 7,3 C 14,2 km/h (3 Bft)
04.10.2012 18:30 10,7 C 20,2 C 10,9 C 10,3 C 8,9 C 0,0 C 82 % 91 % 0 % 1009,9 hPa 0,0 l/m 10,9 km/h (2 Bft) S 180 0 min 0,0 UV-I 7,8 C 7,2 C 9,8 km/h (2 Bft)
04.10.2012 18:35 10,5 C 20,3 C 10,9 C 10,2 C 9,1 C 0,0 C 83 % 92 % 0 % 1009,9 hPa 0,0 l/m 10,0 km/h (2 Bft) W-SW 247 0 min 0,0 UV-I 7,7 C 7,6 C 6,9 km/h (2 Bft)
04.10.2012 18:41 10,3 C 20,2 C 10,8 C 10,0 C 9,2 C 0,0 C 83 % 92 % 0 % 1010,6 hPa 0,0 l/m 8,2 km/h (2 Bft) N 0 0 min 0,0 UV-I 7,5 C 8,0 C 12,6 km/h (3 Bft)
04.10.2012 18:55 10,3 C 20,2 C 10,8 C 9,9 C 9,2 C 0,0 C 83 % 92 % 0 % 1010,6 hPa 0,0 l/m 8,5 km/h (2 Bft) W-NW 292 0 min 0,0 UV-I 7,5 C 8,0 C 16,9 km/h (3 Bft)
04.10.2012 19:00 10,1 C 20,2 C 10,8 C 9,9 C 9,0 C 0,0 C 83 % 92 % 0 % 1010,6 hPa 0,0 l/m 9,5 km/h (2 Bft) W 270 0 min 0,0 UV-I 7,3 C 7,5 C 24,6 km/h (4 Bft)
04.10.2012 19:05 10,0 C 20,1 C 10,7 C 9,7 C 8,3 C 0,0 C 82 % 92 % 0 % 1011,4 hPa 0,0 l/m 11,9 km/h (2 Bft) S-SW 202 0 min 0,0 UV-I 7,1 C 6,3 C 18,7 km/h (3 Bft)
04.10.2012 19:10 9,9 C 20,1 C 10,4 C 9,5 C 7,9 C 0,0 C 82 % 92 % 0 % 1011,4 hPa 0,0 l/m 12,2 km/h (2 Bft) S 180 0 min 0,0 UV-I 7,0 C 5,7 C 14,8 km/h (3 Bft)
04.10.2012 19:15 9,8 C 20,1 C 10,3 C 9,2 C 7,9 C 0,0 C 82 % 92 % 0 % 1011,4 hPa 0,0 l/m 11,1 km/h (2 Bft) W-SW 247 0 min 0,0 UV-I 6,9 C 5,9 C 20,8 km/h (4 Bft)
04.10.2012 19:20 9,9 C 20,0 C 10,2 C 9,4 C 7,8 C 0,0 C 82 % 92 % 0 % 1011,4 hPa 0,0 l/m 11,3 km/h (2 Bft) SW 225 0 min 0,0 UV-I 7,0 C 5,8 C 12,4 km/h (3 Bft)
04.10.2012 19:25 9,8 C 20,0 C 10,1 C 9,1 C 7,8 C 0,0 C 82 % 92 % 0 % 1012,0 hPa 0,0 l/m 11,4 km/h (2 Bft) N-NW 337 0 min 0,0 UV-I 6,9 C 5,7 C 9,7 km/h (2 Bft)
04.10.2012 19:30 9,9 C 20,0 C 10,0 C 9,4 C 7,9 C 0,0 C 81 % 92 % 0 % 1012,0 hPa 0,0 l/m 11,7 km/h (2 Bft) W-SW 247 0 min 0,0 UV-I 6,8 C 5,8 C 13,0 km/h (3 Bft)
04.10.2012 19:35 9,9 C 20,0 C 10,1 C 9,4 C 7,8 C 0,0 C 81 % 92 % 0 % 1012,0 hPa 0,0 l/m 12,1 km/h (2 Bft) W-NW 292 0 min 0,0 UV-I 6,8 C 5,6 C 13,2 km/h (3 Bft)
04.10.2012 19:40 9,7 C 19,9 C 10,0 C 9,3 C 7,9 C 0,0 C 81 % 92 % 0 % 1012,0 hPa 0,0 l/m 11,6 km/h (2 Bft) SW 225 0 min 0,0 UV-I 6,6 C 5,8 C 12,2 km/h (2 Bft)
04.10.2012 19:45 9,7 C 19,9 C 9,9 C 9,1 C 7,9 C 0,0 C 81 % 92 % 0 % 1012,2 hPa 0,0 l/m 10,8 km/h (2 Bft) S-SW 202 0 min 0,0 UV-I 6,6 C 6,0 C 10,5 km/h (2 Bft)
04.10.2012 19:50 9,6 C 19,9 C 9,8 C 9,0 C 7,9 C 0,0 C 81 % 92 % 0 % 1012,2 hPa 0,0 l/m 9,5 km/h (2 Bft) W-SW 247 0 min 0,0 UV-I 6,5 C 6,2 C 9,0 km/h (2 Bft)
04.10.2012 19:55 9,6 C 19,9 C 9,9 C 9,0 C 7,9 C 0,0 C 81 % 92 % 0 % 1012,2 hPa 0,0 l/m 9,2 km/h (2 Bft) SW 225 0 min 0,0 UV-I 6,5 C 6,3 C 8,5 km/h (2 Bft)
04.10.2012 20:00 9,5 C 19,9 C 9,7 C 9,1 C 7,8 C 0,0 C 81 % 92 % 0 % 1012,2 hPa 0,0 l/m 9,3 km/h (2 Bft) W 270 0 min 0,0 UV-I 6,4 C 6,1 C 9,0 km/h (2 Bft)
04.10.2012 20:05 9,5 C 19,8 C 9,7 C 8,9 C 7,8 C 0,0 C 81 % 92 % 0 % 1013,1 hPa 0,0 l/m 8,9 km/h (2 Bft) SW 225 0 min 0,0 UV-I 6,4 C 6,2 C 13,8 km/h (3 Bft)
04.10.2012 20:10 9,5 C 19,8 C 9,6 C 9,1 C 7,7 C 0,0 C 81 % 92 % 0 % 1013,1 hPa 0,0 l/m 9,5 km/h (2 Bft) W-SW 247 0 min 0,0 UV-I 6,4 C 6,0 C 14,0 km/h (3 Bft)
04.10.2012 20:15 9,4 C 19,8 C 9,6 C 9,0 C 7,6 C 0,0 C 81 % 92 % 0 % 1013,1 hPa 0,0 l/m 9,3 km/h (2 Bft) W-SW 247 0 min 0,0 UV-I 6,3 C 5,9 C 5,8 km/h (2 Bft)
04.10.2012 20:20 9,3 C 19,8 C 9,6 C 8,9 C 7,7 C 0,0 C 81 % 92 % 0 % 1013,1 hPa 0,0 l/m 8,7 km/h (2 Bft) W 270 0 min 0,0 UV-I 6,2 C 6,1 C 4,3 km/h (1 Bft)
04.10.2012 20:25 9,2 C 19,8 C 9,5 C 8,8 C 7,6 C 0,0 C 81 % 92 % 0 % 1013,8 hPa 0,0 l/m 9,0 km/h (2 Bft) S-SW 202 0 min 0,0 UV-I 6,1 C 6,0 C 11,9 km/h (2 Bft)
04.10.2012 20:30 9,3 C 19,7 C 9,5 C 8,9 C 7,5 C 0,0 C 81 % 92 % 0 % 1013,8 hPa 0,0 l/m 8,4 km/h (2 Bft) W-SW 247 0 min 0,0 UV-I 6,2 C 6,0 C 10,9 km/h (2 Bft)
04.10.2012 20:35 9,2 C 19,7 C 9,4 C 8,6 C 7,5 C 0,0 C 80 % 92 % 0 % 1013,8 hPa 0,0 l/m 8,2 km/h (2 Bft) S 180 0 min 0,0 UV-I 5,9 C 6,0 C 10,1 km/h (2 Bft)
04.10.2012 20:40 9,2 C 19,7 C 9,5 C 8,6 C 7,5 C 0,0 C 80 % 92 % 0 % 1013,8 hPa 0,0 l/m 8,4 km/h (2 Bft) S 180 0 min 0,0 UV-I 5,9 C 6,0 C 3,4 km/h (1 Bft)
04.10.2012 20:45 9,2 C 19,6 C 9,3 C 8,7 C 7,7 C 0,0 C 80 % 92 % 0 % 1014,9 hPa 0,0 l/m 7,6 km/h (2 Bft) W 270 0 min 0,0 UV-I 5,9 C 6,4 C 13,7 km/h (3 Bft)
04.10.2012 20:50 9,2 C 19,6 C 9,3 C 8,7 C 7,8 C 0,0 C 80 % 92 % 0 % 1014,9 hPa 0,0 l/m 6,8 km/h (2 Bft) SW 225 0 min 0,0 UV-I 5,9 C 6,7 C 11,6 km/h (2 Bft)
04.10.2012 20:55 9,1 C 19,6 C 9,3 C 8,5 C 7,4 C 0,0 C 80 % 92 % 0 % 1014,9 hPa 0,0 l/m 7,6 km/h (2 Bft) S-SW 202 0 min 0,0 UV-I 5,8 C 6,0 C 11,9 km/h (2 Bft)
04.10.2012 21:00 9,1 C 19,6 C 9,2 C 8,5 C 7,4 C 0,0 C 80 % 92 % 0 % 1014,9 hPa 0,0 l/m 8,5 km/h (2 Bft) W-SW 247 0 min 0,0 UV-I 5,8 C 5,8 C 6,1 km/h (2 Bft)
04.10.2012 21:05 9,0 C 19,6 C 9,2 C 8,6 C 7,3 C 0,0 C 80 % 92 % 0 % 1014,2 hPa 0,0 l/m 8,2 km/h (2 Bft) W-NW 292 0 min 0,0 UV-I 5,7 C 5,8 C 4,3 km/h (1 Bft)
04.10.2012 21:10 8,9 C 19,6 C 9,3 C 8,5 C 7,7 C 0,0 C 80 % 92 % 0 % 1014,2 hPa 0,0 l/m 6,3 km/h (2 Bft) S-SW 202 0 min 0,0 UV-I 5,6 C 6,7 C 2,7 km/h (1 Bft)
04.10.2012 21:15 8,8 C 19,6 C 9,2 C 8,4 C 7,7 C 0,0 C 80 % 92 % 0 % 1014,2 hPa 0,0 l/m 5,3 km/h (1 Bft) SW 225 0 min 0,0 UV-I 5,5 C 7,0 C 4,8 km/h (1 Bft)
04.10.2012 21:20 8,7 C 19,5 C 9,1 C 8,4 C 7,9 C 0,0 C 80 % 92 % 0 % 1014,2 hPa 0,0 l/m 4,2 km/h (1 Bft) S-SO 157 0 min 0,0 UV-I 5,4 C 7,9 C 3,7 km/h (1 Bft)
04.10.2012 21:25 8,6 C 19,5 C 9,1 C 8,3 C 7,8 C 0,0 C 81 % 92 % 0 % 1015,2 hPa 0,0 l/m 4,0 km/h (1 Bft) W 270 0 min 0,0 UV-I 5,5 C 7,8 C 5,5 km/h (1 Bft)
04.10.2012 21:30 8,4 C 19,5 C 9,0 C 8,2 C 7,8 C 0,0 C 81 % 92 % 0 % 1015,2 hPa 0,0 l/m 3,1 km/h (1 Bft) SW 225 0 min 0,0 UV-I 5,3 C 7,8 C 5,1 km/h (1 Bft)
04.10.2012 21:35 8,4 C 19,5 C 8,8 C 8,1 C 7,6 C 0,0 C 81 % 92 % 0 % 1015,2 hPa 0,0 l/m 2,1 km/h (1 Bft) S-SW 202 0 min 0,0 UV-I 5,3 C 7,6 C 3,1 km/h (1 Bft)
04.10.2012 21:40 8,3 C 19,5 C 8,8 C 8,0 C 7,4 C 0,0 C 81 % 92 % 0 % 1015,2 hPa 0,0 l/m 1,0 km/h (0 Bft) S-SO 157 0 min 0,0 UV-I 5,2 C 7,4 C 0,0 km/h (0 Bft)
04.10.2012 21:45 8,1 C 19,6 C 8,7 C 7,8 C 7,2 C 0,0 C 81 % 92 % 0 % 1015,2 hPa 0,0 l/m 1,0 km/h (0 Bft) SW 225 0 min 0,0 UV-I 5,0 C 7,2 C 3,2 km/h (1 Bft)
04.10.2012 21:50 7,9 C 19,5 C 8,7 C 7,6 C 7,1 C 0,0 C 82 % 92 % 0 % 1015,2 hPa 0,0 l/m 1,0 km/h (0 Bft) O-SO 112 0 min 0,0 UV-I 5,0 C 7,1 C 1,6 km/h (1 Bft)
04.10.2012 21:55 7,8 C 19,5 C 8,7 C 7,6 C 7,1 C 0,0 C 82 % 92 % 0 % 1015,2 hPa 0,0 l/m 1,3 km/h (1 Bft) O-SO 112 0 min 0,0 UV-I 4,9 C 7,1 C 4,5 km/h (1 Bft)
04.10.2012 22:00 7,8 C 19,5 C 8,7 C 7,6 C 7,2 C 0,0 C 82 % 93 % 0 % 1015,2 hPa 0,0 l/m 1,4 km/h (1 Bft) SO 135 0 min 0,0 UV-I 4,9 C 7,2 C 2,9 km/h (1 Bft)
04.10.2012 22:05 7,7 C 19,5 C 8,6 C 7,5 C 7,2 C 0,0 C 82 % 93 % 0 % 1015,4 hPa 0,0 l/m 1,6 km/h (1 Bft) S 180 0 min 0,0 UV-I 4,8 C 7,2 C 7,2 km/h (2 Bft)
04.10.2012 22:10 7,7 C 19,5 C 8,7 C 7,5 C 7,2 C 0,0 C 82 % 93 % 0 % 1015,4 hPa 0,0 l/m 2,1 km/h (1 Bft) S 180 0 min 0,0 UV-I 4,8 C 7,2 C 2,7 km/h (1 Bft)
04.10.2012 22:15 7,6 C 19,4 C 8,7 C 7,5 C 7,3 C 0,0 C 82 % 93 % 0 % 1015,4 hPa 0,0 l/m 2,1 km/h (1 Bft) SO 135 0 min 0,0 UV-I 4,7 C 7,3 C 0,0 km/h (0 Bft)
04.10.2012 22:20 7,6 C 19,4 C 8,7 C 7,5 C 7,3 C 0,0 C 83 % 93 % 0 % 1015,4 hPa 0,0 l/m 1,8 km/h (1 Bft) SW 225 0 min 0,0 UV-I 4,9 C 7,3 C 0,0 km/h (0 Bft)
04.10.2012 22:25 7,6 C 19,4 C 8,5 C 7,5 C 7,3 C 0,0 C 83 % 93 % 0 % 1015,4 hPa 0,0 l/m 1,8 km/h (1 Bft) S 180 0 min 0,0 UV-I 4,9 C 7,3 C 1,9 km/h (1 Bft)
04.10.2012 22:30 7,6 C 19,4 C 8,5 C 7,5 C 7,2 C 0,0 C 83 % 93 % 0 % 1015,4 hPa 0,0 l/m 1,6 km/h (1 Bft) S-SO 157 0 min 0,0 UV-I 4,9 C 7,2 C 2,3 km/h (1 Bft)
04.10.2012 22:35 7,6 C 19,4 C 8,5 C 7,5 C 7,2 C 0,0 C 83 % 93 % 0 % 1015,4 hPa 0,0 l/m 2,3 km/h (1 Bft) N 360 0 min 0,0 UV-I 4,9 C 7,2 C 3,7 km/h (1 Bft)
04.10.2012 22:40 7,6 C 19,3 C 8,6 C 7,5 C 7,2 C 0,0 C 83 % 93 % 0 % 1015,4 hPa 0,0 l/m 4,0 km/h (1 Bft) N-NW 337 0 min 0,0 UV-I 4,9 C 7,2 C 4,5 km/h (1 Bft)
04.10.2012 22:45 7,7 C 19,3 C 8,7 C 7,5 C 7,2 C 0,0 C 83 % 93 % 0 % 1016,1 hPa 0,0 l/m 4,2 km/h (1 Bft) S-SW 202 0 min 0,0 UV-I 5,0 C 7,2 C 6,1 km/h (2 Bft)
04.10.2012 22:50 7,6 C 19,3 C 8,7 C 7,5 C 7,2 C 0,0 C 83 % 93 % 0 % 1016,1 hPa 0,0 l/m 4,7 km/h (1 Bft) W-NW 292 0 min 0,0 UV-I 4,9 C 6,7 C 7,2 km/h (2 Bft)
04.10.2012 22:55 7,6 C 19,3 C 8,7 C 7,5 C 7,4 C 0,0 C 83 % 93 % 0 % 1016,1 hPa 0,0 l/m 4,0 km/h (1 Bft) S-SW 202 0 min 0,0 UV-I 4,9 C 7,4 C 2,9 km/h (1 Bft)
04.10.2012 23:00 7,7 C 19,3 C 8,7 C 7,7 C 7,6 C 0,0 C 83 % 93 % 0 % 1016,1 hPa 0,0 l/m 3,7 km/h (1 Bft) S-SW 202 0 min 0,0 UV-I 5,0 C 7,6 C 4,8 km/h (1 Bft)
04.10.2012 23:05 7,7 C 19,2 C 8,7 C 7,7 C 7,6 C 0,0 C 83 % 92 % 0 % 1016,0 hPa 0,0 l/m 3,7 km/h (1 Bft) SW 225 0 min 0,0 UV-I 5,0 C 7,6 C 2,9 km/h (1 Bft)
04.10.2012 23:10 7,7 C 19,2 C 8,7 C 7,7 C 7,6 C 0,0 C 83 % 92 % 0 % 1016,0 hPa 0,0 l/m 3,9 km/h (1 Bft) W-SW 247 0 min 0,0 UV-I 5,0 C 7,6 C 2,7 km/h (1 Bft)
04.10.2012 23:15 7,7 C 19,2 C 8,7 C 7,7 C 7,7 C 0,0 C 83 % 92 % 0 % 1016,0 hPa 0,0 l/m 3,5 km/h (1 Bft) SO 135 0 min 0,0 UV-I 5,0 C 7,7 C 3,9 km/h (1 Bft)
04.10.2012 23:20 7,8 C 19,2 C 8,7 C 7,8 C 7,7 C 0,0 C 82 % 92 % 0 % 1016,0 hPa 0,0 l/m 3,7 km/h (1 Bft) W-SW 247 0 min 0,0 UV-I 4,9 C 7,7 C 3,2 km/h (1 Bft)
04.10.2012 23:25 7,8 C 19,2 C 8,7 C 7,7 C 7,6 C 0,0 C 82 % 92 % 0 % 1016,2 hPa 0,0 l/m 3,9 km/h (1 Bft) NW 315 0 min 0,0 UV-I 4,9 C 7,6 C 10,6 km/h (2 Bft)
04.10.2012 23:30 7,9 C 19,2 C 8,7 C 7,8 C 7,7 C 0,0 C 82 % 92 % 0 % 1016,2 hPa 0,0 l/m 3,7 km/h (1 Bft) SW 225 0 min 0,0 UV-I 5,0 C 7,7 C 4,5 km/h (1 Bft)
04.10.2012 23:35 7,9 C 19,2 C 8,7 C 7,8 C 7,6 C 0,0 C 82 % 92 % 0 % 1016,2 hPa 0,0 l/m 3,9 km/h (1 Bft) SW 225 0 min 0,0 UV-I 5,0 C 7,6 C 5,1 km/h (1 Bft)
04.10.2012 23:40 7,9 C 19,1 C 8,7 C 7,8 C 7,6 C 0,0 C 82 % 92 % 0 % 1016,2 hPa 0,0 l/m 3,4 km/h (1 Bft) SW 225 0 min 0,0 UV-I 5,0 C 7,6 C 5,5 km/h (1 Bft)
04.10.2012 23:45 7,9 C 19,1 C 8,5 C 7,8 C 7,6 C 0,0 C 82 % 92 % 0 % 1016,1 hPa 0,0 l/m 3,7 km/h (1 Bft) W-SW 247 0 min 0,0 UV-I 5,0 C 7,6 C 6,6 km/h (2 Bft)
04.10.2012 23:50 7,9 C 19,1 C 8,5 C 7,8 C 7,7 C 0,0 C 82 % 92 % 0 % 1016,1 hPa 0,0 l/m 3,5 km/h (1 Bft) SW 225 0 min 0,0 UV-I 5,0 C 7,7 C 2,3 km/h (1 Bft)
04.10.2012 23:55 7,9 C 19,1 C 8,6 C 7,8 C 7,7 C 0,0 C 82 % 92 % 0 % 1016,1 hPa 0,0 l/m 3,4 km/h (1 Bft) NW 315 0 min 0,0 UV-I 5,0 C 7,7 C 5,5 km/h (1 Bft)
_ Min-Zeit 22:15 23:40 22:25 22:05 21:50 00:55 13:40 13:40 00:00 15:45 - 00:25 - - - 00:00 22:15 19:35 00:15
Minimum _ 7,6 C 19,1 C 8,5 C 7,5 C 7,1 C 0,0 C 58 % 63 % 0 % 1004,4 hPa - 0,3 km/h (0 Bft) - - - 0,0 UV-I 4,7 C 5,6 C 0,0 km/h (0 Bft)
_ Max-Zeit 13:00 16:50 13:40 14:20 14:20 11:50 18:35 22:00 11:50 23:25 16:50 17:00 - - 00:00 14:20 16:50 14:20 16:50
Maximum _ 18,7 C 20,5 C 18,3 C 20,0 C 20,0 C 1,6 C 83 % 93 % 42 % 1016,2 hPa 0,7 l/m 17,9 km/h
SW (3 Bft)
- - 0 min 1,1 UV-I 11,5 C 20,0 C 50,2 km/h
SW (7 Bft)
Durchschnitt _ 14,3 C 19,6 C 14,1 C 14,5 C 14,2 C 0,3 C 71 % 78 % 7 % 1010,6 hPa #2,1 l/m 4,8 km/h (1 Bft) SW - #0 min. 0,6 UV-I 9,0 C 13,9 C 7,1 km/h (2 Bft)
2012 www.wetterstation-wechselburg.de